This is the latest recevied weather packets stored in our database for station/object KB9ZI. If no packets are shown the sender has not sent any weather packets the latest 10 day(s).
| Time | Temp. | Humidity | Pressure | Rain* | Wind** | Luminosity | Snow |
|---|---|---|---|---|---|---|---|
| 1777584440 | 10.56° C | 47% | 1016.2 hPa | 0 mm | - | - | - |
| 1777584316 | 10.56° C | 49% | 1016.1 hPa | 0 mm | - | - | - |
| 1777584197 | 10.56° C | 50% | 1016.2 hPa | 0 mm | - | - | - |
| 1777584070 | 10.56° C | 49% | 1016.3 hPa | 0 mm | - | - | - |
| 1777584012 | 10.56° C | 47% | 1016.3 hPa | 0 mm | - | - | - |
| 1777583830 | 10.56° C | 48% | 1016.3 hPa | 0 mm | - | - | - |
| 1777583762 | 10.56° C | 47% | 1016.3 hPa | 0 mm | - | - | - |
| 1777583585 | 10.56° C | 46% | 1016.3 hPa | 0 mm | - | - | - |
| 1777583485 | 10.56° C | 47% | 1016.4 hPa | 0 mm | - | - | - |
| 1777583452 | 10.56° C | 46% | 1016.4 hPa | 0 mm | - | - | - |
| 1777583228 | 10.56° C | 47% | 1016.3 hPa | 0 mm | - | - | - |
| 1777583108 | 11.11° C | 47% | 1016.3 hPa | 0 mm | - | - | - |
| 1777583046 | 11.67° C | 44% | 1016.3 hPa | 0 mm | - | - | - |
| 1777582876 | 11.67° C | 44% | 1016.5 hPa | 0 mm | - | - | - |
| 1777582845 | 11.67° C | 42% | 1016.4 hPa | 0 mm | - | - | - |
| 1777582595 | 12.22° C | 45% | 1016.5 hPa | 0 mm | - | - | - |
| 1777582477 | 12.22° C | 47% | 1016.5 hPa | 0 mm | - | - | - |
| 1777582350 | 12.22° C | 46% | 1016.5 hPa | 0 mm | - | - | - |
| 1777582275 | 12.22° C | 45% | 1016.5 hPa | 0 mm | - | - | - |
| 1777582240 | 12.22° C | 46% | 1016.5 hPa | 0 mm | - | - | - |
| 1777581990 | 12.22° C | 49% | 1016.5 hPa | 0 mm | - | - | - |
| 1777581867 | 11.67° C | 44% | 1016.6 hPa | 0 mm | - | - | - |
| 1777581748 | 12.22° C | 46% | 1016.4 hPa | 0 mm | - | - | - |
| 1777581655 | 12.22° C | 46% | 1016.5 hPa | 0 mm | - | - | - |
| 1777581488 | 12.22° C | 46% | 1016.7 hPa | 0 mm | - | - | - |
* Rain latest hour (hover to see other rain measurements)
** Current wind speed in m/s (hover to see current wind gust speed)